Home   Weather   Gainesville   Past weeks
Flag for USA

Past Weather in Gainesville, Florida, USA — Yesterday and Last 2 Weeks

Now
66 °F

Clear.


Feels Like: 66 °F
Forecast: 81 / 50 °F
Wind: No wind

Location: Gainesville Regional Airport

Current Time: Mar 23, 2019 at 9:04:46 pm

Latest Report: Mar 23, 2019 at 7:53 pm


Visibility: 10 mi

Pressure: 30.21 "Hg

Humidity: 39%

Dew Point: 40 °F

Location of GainesvilleLocation

Past Weather in Gainesville — Graph

°F

Gainesville Temperature Yesterday

Maximum temperature yesterday: 78 °F (at 3:53 pm)
Minimum temperature yesterday: 46 °F (at 3:53 am)
Average temperature yesterday: 61 °F

High & Low Weather Summary for the Past Weeks

 TemperatureHumidityPressure
High87 °F (Mar 10, 4:53 pm)90% (Mar 10, 7:12 am)30.27 "Hg (Mar 10, 7:12 am)
Low43 °F (Mar 23, 6:53 am)17% (Mar 23, 4:53 pm)29.91 "Hg (Mar 21, 5:53 pm)
Average66 °F61%30.15 "Hg
* Reported Mar 8 6:53 pm — Mar 23 7:53 pm, Gainesville. Weather by CustomWeather, © 2019

Note: Actual official high and low records may vary slightly from our data, if they occured in-between our weather recording intervals... More about our weather records

Advertising

Gainesville Weather History for the Previous 24 Hours

Scroll right to see more
 ConditionsComfort  
Time TempWeatherWind HumidityBarometerVisibility
7:53 pm
Sat, Mar 23
66 °FClear.No wind39%30.21 "Hg10 mi
6:53 pm77 °FSunny.6 mph22%30.20 "Hg10 mi
5:53 pm80 °FSunny.7 mph17%30.19 "Hg10 mi
4:53 pm80 °FSunny.7 mph17%30.19 "Hg10 mi
3:53 pm78 °FSunny.No wind19%30.20 "Hg10 mi
2:53 pm78 °FSunny.No wind21%30.22 "Hg10 mi
1:53 pm77 °FSunny.7 mph22%30.24 "Hg10 mi
12:53 pm75 °FSunny.3 mph24%30.26 "Hg10 mi
11:53 am73 °FSunny.9 mph25%30.27 "Hg10 mi
10:53 am71 °FSunny.10 mph30%30.26 "Hg10 mi
9:53 am64 °FSunny.8 mph41%30.24 "Hg10 mi
8:53 am55 °FSunny.3 mph74%30.22 "Hg10 mi
7:53 am44 °FSunny.No wind85%30.20 "Hg9 mi
6:53 am43 °FClear.No wind89%30.17 "Hg10 mi
6:38 am44 °FFog.No wind85%30.17 "Hg3 mi
6:22 am44 °FFog.No wind85%30.16 "Hg1 mi
5:53 am47 °FFog.No wind86%30.15 "Hg5 mi
4:53 am48 °FClear.3 mph86%30.13 "Hg8 mi
3:53 am49 °FClear.No wind86%30.13 "Hg9 mi
2:53 am52 °FClear.5 mph83%30.14 "Hg10 mi
1:53 am53 °FClear.3 mph80%30.13 "Hg10 mi
12:53 am57 °FClear.6 mph74%30.14 "Hg10 mi
11:53 pm
Fri, Mar 22
54 °FClear.7 mph74%30.14 "Hg10 mi
10:53 pm57 °FClear.7 mph67%30.12 "Hg10 mi
9:53 pm59 °FClear.8 mph62%30.11 "Hg10 mi
Weather by CustomWeather, © 2019

See weather overview